Location: Cardiff
(53.7833°N, 113.6000°W)
Time: 20:26:28
(UTC+00:00)

Oscar 19 - Pass Details

Date: 07 December 2023
Orbit: 771 x 789 km, 98.9° (Epoch: 04 March)

Event Time Altitude Azimuth Distance (km) Brightness Sun altitude
Rises 00:30:25 0° 206° (SSW) 3,236 14.7 -10.3°
Reaches altitude 10° 00:33:18 10° 223° (SW) 2,315 14.3 -10.7°
Maximum altitude 00:37:03 20° 270° (W) 1,712 13.4 -11.2°
Drops below altitude 10° 00:40:51 10° 318° (NW) 2,332 13.4 -11.8°
Sets 00:43:46 0° 335° (NNW) 3,267 13.9 -12.2°
